Home > Time Zones > World Clock > Weather > China > Hefei > Past weeks

Flag for China Weather past 2 weeks in Hefei, Anhui, China

Now
75 °F

Partly sunny.


Feels Like: 75 °F
Forecast: 71 / 76 °F
Wind: 3 mph from Northwest

Location: Hefei Airport

Current Time: Sep 1, 2014 at 7:14:50 PM

Latest Report: Sep 1, 2014 at 6:00 PM


Visibility: 4 mi

Pressure: 29.86 "Hg

Humidity: 89%

Dew point: 72 °F

Location of HefeiLocation

Historic Weather in Hefei — Graph

°F

Hefei temperature yesterday

Maximum temperature yesterday: 77 °F (at 11:00 AM)
Minimum temperature yesterday: 70 °F (at 8:00 PM)
Average temperature yesterday: 74 °F

Past Weeks' High & Low Weather Summary

 TemperatureHumidityPressure
High91 °F (Aug 23, 2:00 PM)100% (Aug 18, 2:00 AM)30.01 "Hg (Aug 18, 2:00 AM)
Low68 °F (Aug 19, 3:00 AM)52% (Aug 21, 4:00 PM)29.65 "Hg (Aug 24, 4:00 AM)
Average76 °F86%29.86 "Hg
* Reported Aug 17 6:00 PM — Sep 1 6:00 PM, Hefei, Weather by CustomWeather, © 2014

Note: Actual official high and low records may vary slightly from our data, if they occured in-between our weather recording intervals... More about our weather records

Advertising

Hefei weather history for previous 24 hours

 ConditionsComfort  
Time TempWeatherWind HumidityBarometerVisibility
6:00 PM
Sep 1
75 °FPartly sunny.3 mph89%29.86 "Hg4 mi
5:00 PM75 °FMostly cloudy.6 mph89%29.86 "Hg5 mi
4:00 PM75 °FMostly cloudy.6 mph89%29.86 "Hg5 mi
3:00 PM75 °FMostly cloudy.3 mph89%29.83 "Hg4 mi
2:00 PM75 °FMostly cloudy.3 mph89%29.86 "Hg4 mi
1:00 PM73 °FFog.6 mph89%29.86 "Hg3 mi
12:00 PM73 °FMostly cloudy.6 mph89%29.89 "Hg4 mi
11:00 AM73 °FMostly cloudy.3 mph89%29.89 "HgN/A
10:00 AM73 °FMostly cloudy.1 mph89%29.89 "HgN/A
9:00 AM72 °FFog.3 mph94%29.89 "Hg3 mi
8:00 AM70 °FFog.6 mph100%29.89 "Hg1 mi
7:00 AM70 °FLight rain. Fog.6 mph100%29.86 "Hg1 mi
6:00 AM70 °FFog.6 mph100%29.86 "Hg1 mi
5:00 AM70 °FFog.6 mph100%29.83 "Hg1 mi
4:00 AM70 °FLight rain. Fog.6 mph100%29.83 "Hg1 mi
3:00 AM70 °FLight rain. Fog.8 mph100%29.83 "Hg1 mi
2:00 AM70 °FLight rain. Fog.8 mph100%29.83 "Hg1 mi
1:00 AM70 °FFog.6 mph100%29.86 "Hg1 mi
12:00 AM70 °FLight rain. Fog.6 mph100%29.86 "Hg1 mi
11:00 PM
Aug 31
70 °FLight rain. Fog.6 mph100%29.86 "Hg1 mi
10:00 PM70 °FLight rain. Fog.6 mph100%29.83 "Hg1 mi
9:00 PM70 °FFog.8 mph100%29.83 "Hg1 mi
8:00 PM70 °FFog.10 mph100%29.80 "Hg1 mi
7:00 PM72 °FLight rain. Fog.10 mph100%29.77 "Hg3 mi
Weather by CustomWeather, © 2014

See weather overviewHow to use our weather pages